Lid_Strength_Index
4 3 4 4 4 4 4 3 3 3 3 2 2 2 2 3 3 3 3 3 3 3
3 3 4 3 3 3 3 3 3 3 3 2 2 2 3 3 2 2 3 3 3 3
3 3 3 3 4 3 3 3 2 2 2 2 2 2 3 3 2 2 2 3 3 3
3 3 3 3 3 3 2 2 2 2 2 2 3 3 3 3 2 3 3 2 2 3
3 3 3 3 3 2 3 3 2 2 2 2 2 3 3 3 2 2 2 2 2 3
3 4 3 3 3 3 3 3 2 2 2 2 2 3 2 2 2 2 1 2 2 2
4 3 3 3 3 3 2 2 2 2 2 2 2 2 2 2 2 1 1 1 1 1
3 3 3 3 3 2 2 2 1 2 3 3 3 3 3 2 2 2 2 1 1 1
3 2 3 3 2 2 2 1 2 3 3 3 3 9 8 5 2 2 2 3 2 2
2 2 3 2 3 2 2 2 4 4 3 4 5 10 10 7 3 3 3 2 2 2
2 2 3 3 3 4 4 4 4 4 4 4 5 11 10 7 3 3 3 2 2 2
2 3 3 3 4 4 4 4 4 4 5 4 5 11 10 5 3 2 2 2 2 2
2 2 3 3 4 4 4 4 4 5 4 6 5 11 10 5 2 2 3 3 4 7
3 3 3 4 4 4 3 3 4 4 5 5 5 7 10 7 2 2 3 3 4 5